Regional Weather Roundup
Issued by NWS Mobile, AL

Home | Current Version | Previous Version | Text Only | Print | Product List | Glossary On
Versions: 1 2 3 4 5 6 7 8 9 10 11 12 13 14 15 16 17 18 19 20 21 22 23 24 25 26 27 28 29 30 31 32 33 34 35 36 37 38 39 40 41 42 43 44 45 46 47 48 49 50
183
ASUS44 KMOB 140812
RWRMOB
REGIONAL WEATHER ROUNDUP
NATIONAL WEATHER SERVICE MOBILE AL
200 AM CST SUN FEB 14 2016

NOTE: "FAIR" INDICATES FEW OR NO CLOUDS BELOW 12,000 FEET WITH NO
      SIGNIFICANT WEATHER AND/OR OBSTRUCTIONS TO VISIBILITY.

  * THESE STATIONS ARE PART OF THE UNIVERSITY OF SOUTH ALABAMA
    MESONET AND ARE NOT UNDER NWS OR FAA QUALITY CONTROL.

ALZ061>064-140900-
COASTAL ALABAMA

CITY           SKY/WX    TMP DP  RH WIND       PRES   REMARKS
MOBILE REG APT CLEAR     38  23  55 E6        30.28F
BROOKLEY FIELD PTCLDY    45  21  38 NE12      30.30F
USA CAMPUS*    NOT AVBL
DOG RIVER*     NOT AVBL


CITY           SKY/WX    TMP DP  RH WIND       PRES   REMARKS
MOUNT VERNON*  NOT AVBL
SARALAND*      NOT AVBL
BAY MINETTE*   NOT AVBL
LOXLEY*        NOT AVBL
ROBERTSDALE*   NOT AVBL
FAIRHOPE*      NOT AVBL
ELBERTA*       NOT AVBL
FOLEY*         NOT AVBL
GRAND BAY*     NOT AVBL
DAUPHIN ISLND* NOT AVBL
BON SCOUR NWR* NOT AVBL
GULF SHORES    PTCLDY    38  23  53 CALM      30.29F

$$

ALZ051>060-140900-
INTERIOR SOUTHWEST AND SOUTH CENTRAL ALABAMA

CITY           SKY/WX    TMP DP  RH WIND       PRES   REMARKS
GREENVILLE     CLEAR     33  18  53 NE3       30.30F
EVERGREEN      CLEAR     30  26  85 CALM      30.31F
CASTLEBERRY*   NOT AVBL
ATMORE*        NOT AVBL
DIXIE*         NOT AVBL
ANDALUSIA/OPP  CLEAR     37  18  46 CALM      30.30
ANDALUSIA*     NOT AVBL
FLORALA APT    CLEAR     34  19  54 NE3       30.32F
FLORALA*       NOT AVBL

$$

FLZ001>006-140900-
WESTERN FLORIDA PANHANDLE

CITY           SKY/WX    TMP DP  RH WIND       PRES   REMARKS
PENSACOLA      CLEAR     43  19  38 NE8       30.28F
NAS PENSACOLA  CLEAR     45  22  40 E9        30.28F
MILTON         CLEAR     36  19  50 E7        30.29F
WHTNG S FIELD  CLEAR     39  20  46 NE8       30.29F


CITY           SKY/WX    TMP DP  RH WIND       PRES   REMARKS
WALNUT HILL*   NOT AVBL
JAY*           NOT AVBL
DUKE FIELD     CLEAR     34  20  56 E2        30.29F
CRESTVIEW      CLEAR     30  23  75 CALM      30.31F
VALPARAISO     CLEAR     41  15  33 NE10      30.29F
DESTIN         CLEAR     45  20  36 NE9       30.30F

$$

MSZ076-079-140900-
INTERIOR SOUTHEAST MISSISSIPPI

CITY           SKY/WX    TMP DP  RH WIND       PRES   REMARKS
LEAKESVILLE*   NOT AVBL
AGRICOLA*      NOT AVBL

$$

MARINE OBSERVATIONS

STATION/POSITION TIME  TEMP    WIND        PRES    WAVE
                       AIR SEA DIR/SP/G            HT/PER
                 (UTC) (F)     (DEG/KT/KT) (MB)    (FT/S)
PASCAGOULA       0700   45      60/  6/  9 1025.8F
PETIT BOIS ISLND 0700   50      70/ 16/ 20 1026.4F
GRAND BAY        0645   45      60/  7     1027.0F
KATRINA CUT      0700   49      70/ 17       N/A
CEDAR POINT      0700   49      70/ 13     1025.7
E DAUPHIN ISLAND 0700   49      60/ 17/ 18 1025.9F
MIDDLE BAY LIGHT 0700           60/ 15     1025.7S
USCG MOBILE BAY  0700   44 54   40/  6/  9 1027.0F
STATE DOCKS      0700   43 53              1026.3F
MEAHER PARK      0700   43      10/  4     1026.4F
WEEKS BAY        0600   37                   N/A
FORT MORGAN      0700   48      80/ 15/ 19 1025.4F
12 S ORANGE BCH  0750   54 63   70/ 16/ 19 1024.5F   3/ 4
PENSACOLA BAY    0700   48 52   40/  5/  9 1026.4F

$$

SELECTED LOCATIONS ACROSS THE REGION

CITY           SKY/WX    TMP DP  RH WIND       PRES   REMARKS
NEW ORLEANS    PTCLDY    48  38  68 E5        30.26F
GULFPORT       PTCLDY    42  24  49 E3        30.27F
PASCAGOULA AP  PTCLDY    40  24  53 NE3       30.29F
PASCAGOULA*    NOT AVBL
HATTIESBURG    CLOUDY    32  28  85 CALM      30.29F
LAUREL         CLEAR     34  19  55 CALM      30.28S
MERIDIAN       PTCLDY    29  22  75 CALM      30.30F
JACKSON        PTCLDY    37  17  44 SE5       30.24F
MONTGOMERY     CLEAR     33  16  49 NE3       30.33F
TROY           CLEAR     32  21  64 CALM      30.32F
KINSTON*       NOT AVBL
GENEVA*        NOT AVBL
ASHFORD*       NOT AVBL
DOTHAN         CLEAR     33  23  66 NE6       30.34F WCI  28
PANAMA CITY    CLEAR     38  25  59 NE6       30.29F

$$





USA.gov is the U.S. government's official web portal to all federal, state and local government web resources and services.